Location: Chervonnoye
(48.6000°N, 34.4000°E)
Time: 07:55:53
(UTC+00:00)

KAITUO 1B - Pass Details

Date: 07 December 2021
Orbit: 486 x 507 km, 97.4° (Epoch: 18 January)

Event Time Altitude Azimuth Distance (km) Brightness Sun altitude
Rises 16:00:35 0° 193° (SSW) 2,600 ? -21.1°
Reaches altitude 10° 16:02:54 10° 206° (SSW) 1,724 ? -21.5°
Maximum altitude 16:06:05 27° 265° (W) 1,017 ? -22.0°
Drops below altitude 10° 16:09:19 10° 324° (NW) 1,742 ? -22.5°
Sets 16:11:40 0° 337° (NNW) 2,635 ? -22.9°
